WD9U Weather Reports


time (UTC)temp
C
wind
direction
speed
KPH
gust
KPH
rain 1hr
cm
rain 24hr
cm
rain mn
cm
humidity
%
barometer
mb
20260504012511 16 0 0.0 0.0 0.00 0.00 0.00 28 1002.9
20260504011911 16 0 0.0 0.0 0.00 0.00 0.00 27 1003.0
20260504011311 16 263 0.0 1.6 0.00 0.00 0.00 27 1003.0
20260504010711 16 0 0.0 0.0 0.00 0.00 0.00 27 1003.0
20260504010515 16 263 0.0 1.6 0.00 0.00 0.00 27 1003.0
20260504010111 16 0 0.0 0.0 0.00 0.00 0.00 27 1003.1
20260504005511 17 264 0.0 1.6 0.00 0.00 0.00 27 1003.1
20260504004911 17 264 0.0 1.6 0.00 0.00 0.00 28 1003.1
20260504004514 17 264 0.0 1.6 0.00 0.00 0.00 27 1003.1
20260504004311 17 265 0.0 1.6 0.00 0.00 0.00 27 1003.0
20260504003711 17 248 0.0 1.6 0.00 0.00 0.00 27 1003.2
20260504003111 17 286 0.0 1.6 0.00 0.00 0.00 27 1003.2
20260504002511 18 282 0.0 1.6 0.00 0.00 0.00 27 1003.1
20260504001911 18 326 0.0 1.6 0.00 0.00 0.00 26 1003.1
20260504001311 18 273 0.0 1.6 0.00 0.00 0.00 26 1003.2
20260504000710 18 299 0.0 1.6 0.00 0.00 0.00 25 1003.2
20260504000513 18 308 0.0 1.6 0.00 0.00 0.00 26 1003.2
20260504000110 18 261 1.6 3.2 0.00 0.00 0.00 25 1003.2
20260503235510 18 266 1.6 4.8 0.00 0.00 0.00 24 1003.1
20260503234910 18 271 1.6 1.6 0.00 0.00 0.00 24 1003.3
20260503234513 18 298 1.6 6.4 0.00 0.00 0.00 24 1003.3
20260503234310 18 261 1.6 3.2 0.00 0.00 0.00 24 1003.4
20260503233710 18 293 1.6 3.2 0.00 0.00 0.00 25 1003.5
20260503233110 18 281 1.6 4.8 0.00 0.00 0.00 26 1003.6
20260503232510 18 288 1.6 4.8 0.00 0.00 0.00 25 1003.7
20260503231910 18 327 3.2 16.1 0.00 0.00 0.00 26 1003.8
20260503231310 18 294 0.0 3.2 0.00 0.00 0.00 25 1003.8
20260503230710 18 303 1.6 3.2 0.00 0.00 0.00 25 1003.9
20260503230513 18 306 1.6 3.2 0.00 0.00 0.00 24 1003.8
20260503230110 18 307 4.8 9.7 0.00 0.00 0.00 24 1003.8
20260503225510 18 297 1.6 8.0 0.00 0.00 0.00 24 1003.9
20260503224910 18 259 4.8 12.9 0.00 0.00 0.00 23 1003.8
20260503224513 18 267 1.6 4.8 0.00 0.00 0.00 25 1003.8
20260503224309 18 267 0.0 1.6 0.00 0.00 0.00 25 1003.8
20260503223708 19 294 3.2 4.8 0.00 0.00 0.00 24 1003.9
20260503223108 19 302 0.0 3.2 0.00 0.00 0.00 22 1003.8
20260503222508 19 266 3.2 4.8 0.00 0.00 0.00 21 1003.8
20260503221908 18 308 1.6 3.2 0.00 0.00 0.00 22 1003.8
20260503221308 18 315 1.6 3.2 0.00 0.00 0.00 21 1003.7
20260503220708 18 281 4.8 11.3 0.00 0.00 0.00 21 1003.8
20260503220510 18 298 6.4 17.7 0.00 0.00 0.00 21 1003.7
20260503220108 18 304 4.8 17.7 0.00 0.00 0.00 21 1003.8
20260503215507 18 295 6.4 16.1 0.00 0.00 0.00 23 1003.8
20260503214907 18 279 1.6 3.2 0.00 0.00 0.00 22 1003.8
20260503214519 18 299 4.8 14.5 0.00 0.00 0.00 21 1003.8
20260503214307 18 300 3.2 12.9 0.00 0.00 0.00 21 1003.9
20260503213707 18 316 9.7 14.5 0.00 0.00 0.00 19 1004.0
20260503213107 18 323 6.4 14.5 0.00 0.00 0.00 21 1004.0
20260503212507 18 312 4.8 9.7 0.00 0.00 0.00 21 1004.1
20260503211907 18 309 11.3 17.7 0.00 0.00 0.00 21 1004.0
20260503211307 18 285 9.7 17.7 0.00 0.00 0.00 19 1004.0
20260503210707 18 307 8.0 17.7 0.00 0.00 0.00 19 1004.1
20260503210519 18 309 9.7 22.5 0.00 0.00 0.00 21 1004.0
20260503210107 18 317 3.2 9.7 0.00 0.00 0.00 21 1004.2
20260503205516 18 310 4.8 14.5 0.00 0.00 0.00 20 1004.1
20260503204916 18 267 3.2 6.4 0.00 0.00 0.00 21 1004.1
20260503204518 18 327 3.2 6.4 0.00 0.00 0.00 20 1004.1
20260503204316 18 323 9.7 20.9 0.00 0.00 0.00 20 1004.3
20260503203716 18 298 3.2 11.3 0.00 0.00 0.00 21 1004.1
20260503203116 18 303 3.2 11.3 0.00 0.00 0.00 19 1004.2
20260503202516 18 305 11.3 20.9 0.00 0.00 0.00 20 1004.2
20260503201916 18 289 3.2 9.7 0.00 0.00 0.00 20 1004.2
20260503201316 18 304 4.8 11.3 0.00 0.00 0.00 20 1004.3
20260503200716 18 316 3.2 16.1 0.00 0.00 0.00 19 1004.3
20260503200518 18 319 1.6 6.4 0.00 0.00 0.00 20 1004.4
20260503200115 18 284 1.6 4.8 0.00 0.00 0.00 20 1004.3
20260503195515 18 296 4.8 11.3 0.00 0.00 0.00 21 1004.4
20260503194915 18 307 6.4 17.7 0.00 0.00 0.00 20 1004.4
20260503194517 18 292 8.0 14.5 0.00 0.00 0.00 21 1004.4
20260503194315 18 286 3.2 12.9 0.00 0.00 0.00 22 1004.4
20260503193715 18 338 3.2 12.9 0.00 0.00 0.00 20 1004.4
20260503193115 18 305 8.0 14.5 0.00 0.00 0.00 21 1004.3
20260503192515 18 297 3.2 9.7 0.00 0.00 0.00 22 1004.4
20260503191913 18 302 11.3 22.5 0.00 0.00 0.00 22 1004.4
20260503191314 18 333 11.3 20.9 0.00 0.00 0.00 22 1004.4
20260503190714 18 317 6.4 14.5 0.00 0.00 0.00 26 1004.5
20260503190516 18 318 1.6 4.8 0.00 0.00 0.00 26 1004.4
20260503190113 18 315 9.7 16.1 0.00 0.00 0.00 26 1004.5
20260503185512 18 320 6.4 16.1 0.00 0.00 0.00 27 1004.6
20260503184912 18 285 8.0 14.5 0.00 0.00 0.00 27 1004.7
20260503184515 18 275 3.2 4.8 0.00 0.00 0.00 29 1004.7
20260503184312 18 299 4.8 12.9 0.00 0.00 0.00 30 1004.6
20260503183712 18 304 9.7 17.7 0.00 0.00 0.00 29 1004.7
20260503183112 18 285 6.4 12.9 0.00 0.00 0.00 28 1004.6
20260503182512 18 312 12.9 19.3 0.00 0.00 0.00 28 1004.7
20260503181912 18 308 3.2 9.7 0.00 0.00 0.00 28 1004.7
20260503181312 18 296 9.7 17.7 0.00 0.00 0.00 31 1004.7
20260503180712 18 303 4.8 12.9 0.00 0.00 0.00 32 1004.8
20260503180515 18 308 4.8 12.9 0.00 0.00 0.00 34 1004.7
20260503180112 18 272 3.2 12.9 0.00 0.00 0.00 32 1004.8
20260503175512 18 301 3.2 14.5 0.00 0.00 0.00 33 1004.8
20260503174912 18 271 1.6 3.2 0.00 0.00 0.00 34 1004.8
20260503174515 18 334 6.4 12.9 0.00 0.00 0.00 33 1004.8
20260503174312 18 269 4.8 12.9 0.00 0.00 0.00 32 1004.9
20260503173711 18 289 8.0 17.7 0.00 0.00 0.00 33 1004.9
20260503173111 18 309 9.7 16.1 0.00 0.00 0.00 35 1004.9
20260503172511 18 308 9.7 19.3 0.00 0.00 0.00 33 1004.9
20260503171911 18 310 6.4 16.1 0.00 0.00 0.00 34 1004.9
20260503171311 18 311 9.7 17.7 0.00 0.00 0.00 33 1004.9
20260503170711 18 273 4.8 9.7 0.00 0.00 0.00 35 1005.0
20260503170514 18 305 11.3 20.9 0.00 0.00 0.00 33 1004.8
20260503170111 18 285 4.8 20.9 0.00 0.00 0.00 33 1004.9
20260503160111 17 280 9.7 17.7 0.00 0.00 0.00 39 1005.0
20260503150711 16 275 0.0 1.6 0.00 0.00 0.00 46 1005.2
20260503150513 16 299 0.0 1.6 0.00 0.00 0.00 45 1005.1
20260503150111 16 274 0.0 1.6 0.00 0.00 0.00 46 1005.0
20260503140108 14 215 0.0 1.6 0.00 0.00 0.00 53 1005.7
20260503131315 10 0 0.0 0.0 0.00 0.00 0.00 77 1006.0
20260503130715 9 0 0.0 0.0 0.00 0.00 0.00 79 1006.0
20260503130517 9 0 0.0 0.0 0.00 0.00 0.00 79 1006.1
20260503130114 8 0 0.0 0.0 0.00 0.00 0.00 80 1006.1
20260503120112 7 0 0.0 0.0 0.00 0.00 0.00 85 1005.7
20260503110710 6 0 0.0 0.0 0.00 0.00 0.00 83 1005.5
20260503110512 6 0 0.0 0.0 0.00 0.00 0.00 83 1005.6
20260503110110 6 0 0.0 0.0 0.00 0.00 0.00 83 1005.6
20260503100107 8 0 0.0 0.0 0.00 0.00 0.00 79 1005.8
20260503090117 10 0 0.0 0.0 0.00 0.00 0.00 74 1006.4
20260503081317 10 0 0.0 0.0 0.00 0.00 0.00 70 1006.8
20260503080717 10 0 0.0 0.0 0.00 0.00 0.00 70 1006.8
20260503080520 10 0 0.0 0.0 0.00 0.00 0.00 71 1006.8
20260503080116 10 0 0.0 0.0 0.00 0.00 0.00 71 1007.0
20260503072516 10 0 0.0 0.0 0.00 0.00 0.00 69 1007.4
20260503071916 10 0 0.0 0.0 0.00 0.00 0.00 68 1007.6
20260503071316 10 0 0.0 0.0 0.00 0.00 0.00 67 1007.6
20260503070716 10 0 0.0 0.0 0.00 0.00 0.00 66 1007.7
20260503070519 10 0 0.0 0.0 0.00 0.00 0.00 66 1007.7
20260503070116 10 0 0.0 0.0 0.00 0.00 0.00 65 1007.8
20260503060116 11 0 0.0 0.0 0.00 0.00 0.00 58 1008.6
20260503054916 11 0 0.0 0.0 0.00 0.00 0.00 56 1008.8
20260503054518 11 0 0.0 0.0 0.00 0.00 0.00 55 1008.8
20260503054315 11 0 0.0 0.0 0.00 0.00 0.00 55 1008.8
20260503053715 11 0 0.0 0.0 0.00 0.00 0.00 53 1008.8
20260503053115 11 0 0.0 0.0 0.00 0.00 0.00 53 1008.7
20260503052515 11 0 0.0 0.0 0.00 0.00 0.00 52 1008.7
20260503051915 11 0 0.0 0.0 0.00 0.00 0.00 51 1008.7
20260503051315 11 0 0.0 0.0 0.00 0.00 0.00 52 1008.7
20260503050715 10 0 0.0 0.0 0.00 0.00 0.00 51 1008.6
20260503050517 10 0 0.0 0.0 0.00 0.00 0.00 52 1008.6
20260503050115 10 0 0.0 0.0 0.00 0.00 0.00 52 1008.7
20260503045515 10 0 0.0 0.0 0.00 0.00 0.00 52 1008.6
20260503044915 10 0 0.0 0.0 0.00 0.00 0.00 54 1008.7
20260503044516 9 0 0.0 0.0 0.00 0.00 0.00 55 1008.6
20260503044313 9 0 0.0 0.0 0.00 0.00 0.00 55 1008.7
20260503043713 9 0 0.0 0.0 0.00 0.00 0.00 56 1008.6
20260503043113 9 0 0.0 0.0 0.00 0.00 0.00 55 1008.6
20260503042513 9 0 0.0 0.0 0.00 0.00 0.00 55 1008.5
20260503041913 9 0 0.0 0.0 0.00 0.00 0.00 54 1008.6
20260503041313 9 0 0.0 0.0 0.00 0.00 0.00 54 1008.6
20260503040713 8 0 0.0 0.0 0.00 0.00 0.00 56 1008.6
20260503040519 8 0 0.0 0.0 0.00 0.00 0.00 56 1008.6
20260503040113 8 0 0.0 0.0 0.00 0.00 0.00 56 1008.6
20260503035513 8 0 0.0 0.0 0.00 0.00 0.00 57 1008.6
20260503034913 8 0 0.0 0.0 0.00 0.00 0.00 55 1008.6
20260503034515 8 0 0.0 0.0 0.00 0.00 0.00 55 1008.6
20260503034313 8 0 0.0 0.0 0.00 0.00 0.00 56 1008.7
20260503033713 8 0 0.0 0.0 0.00 0.00 0.00 56 1008.8
20260503033113 8 0 0.0 0.0 0.00 0.00 0.00 58 1008.9
20260503032512 8 0 0.0 0.0 0.00 0.00 0.00 59 1009.0
20260503031911 8 0 0.0 0.0 0.00 0.00 0.00 60 1009.0
20260503031311 8 0 0.0 0.0 0.00 0.00 0.00 61 1009.1
20260503030711 7 0 0.0 0.0 0.00 0.00 0.00 60 1009.1
20260503030513 7 0 0.0 0.0 0.00 0.00 0.00 60 1009.1
20260503030110 7 0 0.0 0.0 0.00 0.00 0.00 58 1009.2
20260503025511 7 0 0.0 0.0 0.00 0.00 0.00 59 1009.3
20260503024911 7 0 0.0 0.0 0.00 0.00 0.00 59 1009.3
20260503024513 7 0 0.0 0.0 0.00 0.00 0.00 59 1009.3
20260503024310 7 0 0.0 0.0 0.00 0.00 0.00 59 1009.4
20260503023710 7 0 0.0 0.0 0.00 0.00 0.00 59 1009.4
20260503023110 7 0 0.0 0.0 0.00 0.00 0.00 59 1009.5
20260503022510 7 0 0.0 0.0 0.00 0.00 0.00 59 1009.6
20260503021910 8 0 0.0 0.0 0.00 0.00 0.00 59 1009.6
20260503021310 8 0 0.0 0.0 0.00 0.00 0.00 58 1009.5
20260503020710 8 0 0.0 0.0 0.00 0.00 0.00 57 1009.6
20260503020513 8 0 0.0 0.0 0.00 0.00 0.00 56 1009.6
20260503020110 8 0 0.0 0.0 0.00 0.00 0.00 55 1009.6
20260503015510 8 0 0.0 0.0 0.00 0.00 0.00 55 1009.7
20260503014910 8 0 0.0 0.0 0.00 0.00 0.00 55 1009.8
20260503014513 8 0 0.0 0.0 0.00 0.00 0.00 54 1009.8
20260503014310 8 0 0.0 0.0 0.00 0.00 0.00 54 1009.9
20260503013710 8 0 0.0 0.0 0.00 0.00 0.00 55 1009.8
20260503013110 8 0 0.0 0.0 0.00 0.00 0.00 54 1009.9